Regional Weather Roundup
Issued by NWS Newport/Morehead, NC

Current Version | Previous Version | Graphics & Text | Print | Product List | Glossary On
Versions: 1 2 3 4 5 6 7 8 9 10 11 12 13 14 15 16 17 18 19 20 21 22 23 24 25 26 27 28 29 30 31 32 33 34 35 36 37 38 39 40 41 42 43 44 45 46 47 48 49 50
000 ASUS42 KMHX 231626 RWRMHX WEATHER ROUNDUP FOR EASTERN NORTH CAROLINA NATIONAL WEATHER SERVICE NEWPORT/MOREHEAD CITY NC 1200 PM EDT SUN JUL 23 2017 NOTE: "FAIR" INDICATES FEW OR NO CLOUDS BELOW 12,000 FEET WITH NO SIGNIFICANT WEATHER AND/OR OBSTRUCTIONS TO VISIBILITY NCZ015>017-031-032-045>047-102-103-231700- NORTH COAST CITY SKY/WX TMP DP RH WIND PRES REMARKS EDENTON SUNNY 91 78 67 SW8 29.86S HX 105 ELIZABETH CITY MOSUNNY 90 81 74 SW9 29.84F HX 109 KITTY HAWK MOSUNNY 88 76 66 SW7G18 29.85S MANTEO PTSUNNY 89 77 67 W16G22 29.86S HX 102 $$ NCZ045>047-081-094-103-104-231700- CENTRAL COAST CITY SKY/WX TMP DP RH WIND PRES REMARKS FRISCO SUNNY 84 75 74 SW15G22 29.90S $$ NCZ095-097-098-100-101-231700- SOUTHERN COAST CITY SKY/WX TMP DP RH WIND PRES REMARKS BEAUFORT MOSUNNY 86 81 85 SW20G28 29.91F HX 102 CEDAR ISLAND NOT AVBL JACKSONVILLE MOSUNNY 92 79 65 SW9G20 29.89F HX 108 PINEY ISLAND SUNNY N/A N/A N/A SW18G24 29.89F WILMINGTON MOSUNNY 91 77 63 SW10 29.91F HX 104 $$ NCZ011>013-027>030-043-044-078>080-089-090>093-098-231700- COASTAL PLAIN CITY SKY/WX TMP DP RH WIND PRES REMARKS AHOSKIE N/A 90 79 70 CALM 29.85S HX 106 CLINTON MOSUNNY 91 78 66 SW8 29.90S HX 106 ELIZABETHTOWN NOT AVBL GOLDSBORO SUNNY 91 80 68 SW13 29.87S HX 109 GREENVILLE SUNNY 91 77 62 W10 29.89S HX 105 HAVELOCK MOSUNNY 91 79 67 S12 29.90F HX 107 KENANSVILLE PTSUNNY 93 75 55 W12G17 29.89F HX 104 KINSTON SUNNY 93 75 55 SW13 29.89S HX 104 NEW BERN SUNNY 92 79 65 SW13 29.90F HX 108 RICHLANDS MOSUNNY 92 79 65 SW12G17 29.90F HX 108 ROCKY MOUNT SUNNY 92 77 61 SW12 29.87R HX 105 WASHINGTON SUNNY 90 77 67 SW13G18 29.87F HX 103 WHITEVILLE MOSUNNY 91 76 61 SW8 29.91F HX 102 $$ AMZ130-135-150-152-154-156-158-170-250-252-270-ANZ085-086-088-633-658-670-231700- MARINE OBSERVATIONS STATION/POSITION TIME TEMP WIND PRES WAVE SWELL AIR SEA DIR/SP/G HT/PER HT/PER (UTC) (F) (DEG/KT/KT) (MB) (FT/S) (FT/S) CHESAPEAKE LIGHT NOT AVBL 64 E VA BEACH 1550 80 79 240/ 12/ 16 1011.0 5/ 6 3/ 7 DUCK 1600 85 58 240/ 15/ 19 1010.5 2 E DUCK 1600 62 N/A 2/ 9 OREGON INLET 1600 85 83 210/ 17/ 20 1010.9 13E OREGON INLT 1548 78 N/A 4/ 5 2/11 HATTERAS CG 1600 82 76 230/ 13/ 19 1012.3 DIAMOND BUOY 1550 84 85 230/ 23/ 25 1012.2 7/ 6 CAPE LOOKOUT 1600 85 230/ 12/ 15 1012.7 BEAUFORT LAB 1600 84 79 220/ 8/ 13 1012.3 30 SE NEW RVR IN 1608 81 82 240/ 16/ 23 1013.3 30 SE NEW RVR IN 1543 82 N/A 6/ 6 2/11 27 SE WRIGHTSVLE 1608 82 82 220/ 17/ 25 1013.2 5 SE WRIGHTSVLE 1608 81 79 200/ 10/ 19 1013.0 225 S CAPE HAT 1550 83 84 250/ 17/ 21 1017.7 5/ 6 2/ 9 41 SE CHARLESTON 1600 82 84 240/ 14/ 17 1014.5 $$

USA.gov is the U.S. government's official web portal to all federal, state and local government web resources and services.